|
NORAD ID: 35686 Int'l Code: 2009-041F
Perigee: 569.1 km
Apogee: 678.1 km
Inclination: 98.1 °
Period: 97.0 minutes
Semi major axis: 6994 km
Launch date: July 29, 2009
Source: United States (US)
Comments: APRIZESAT 3 is a 26-pound American communications satellite that will provide tracking and data monitoring services for companies with remote or mobile assets. The spacecraf is owned by Aprize Satellite Inc., a Virginia-based firm that hopes to lower the cost of satellite communications services.
Two Line Element Set (TLE):
1 35686U 09041F 13138.46573697 .00001075 00000-0 12915-3 0 2138
2 35686 098.1104 072.3040 0077910 177.8912 291.2586 14.84088076205824
Source: AFSPC
NASA's NSSDC Master Catalog entry for APRIZESAT 3
|